{"data":{"norad_id":66579,"epoch":"2026-05-25T01:55:11.947296Z","epoch_age_seconds":68444,"freshness":"FRESH","line1":"1 66579U 25268Y   26145.07999939  .00001756  00000+0  73401-4 0  9996","line2":"2 66579  43.0019 275.5657 0000383 297.8067  62.2746 15.27540611 29642","mean_motion":15.27540611,"eccentricity":3.83e-5,"inclination_deg":43.0019,"raan_deg":275.5657,"arg_perigee_deg":297.8067,"mean_anomaly_deg":62.2746,"bstar":7.3401e-5,"rev_number":2964,"period_min":94.269179466025,"perigee_km":482.90425546533,"apogee_km":483.42983135505,"semimajor_km":6861.3040434102,"source":"CELESTRAK","updated_at":"2026-05-25T13:38:21.284523Z"}}